Weather History for KTCM - July, 2012

Change the Weather History Date:

Tuesday, July 17, 2012

  Actual Average Record
Temperature  
Mean Temperature 66 °F -  
Max Temperature 71 °F 74 °F 93 °F (1979)
Min Temperature 59 °F 52 °F 43 °F (2010)
Growing Degree Days 16 (Base 50)    
Moisture  
Dew Point 58 °F    
Average Humidity 79    
Maximum Humidity 93    
Minimum Humidity 67    
Precipitation  
Precipitation 0.00 in - - ()
Sea Level Pressure  
Sea Level Pressure 29.87 in    
Wind  
Wind Speed 4 mph (WSW)    
Max Wind Speed 8 mph    
Max Gust Speed -    
Visibility 10 miles    
Events      
Averages and records for this station are not official NWS values.
T = Trace of Precipitation, MM = Missing Value Source: NWS Daily Summary

Daily Weather History Graph

Daily Weather History Graph

Search for Another Location

Airport or City:

Trip Planner

Search our weather history database for the weather conditions in past years. The results will help you decide how hot, cold, wet, or windy it might be!

Date:

Astronomy

Jul. 17, 2012 Rise Set
Actual Time 5:32 AM PDT 8:59 PM PDT
Civil Twilight 4:54 AM PDT 9:37 PM PDT
Nautical Twilight 4:04 AM PDT 10:26 PM PDT
Astronomical Twilight 2:58 AM PDT 11:32 PM PDT
Moon 4:14 AM PDT (7/17) 7:50 PM PDT (7/17)
Length of Visible Light 16h 42m
Length of Day
15h 27m
Waning Crescent, 2% of the Moon is Illuminated
Jul 17
Waning Crescent
Jul 18
New
Jul 26
First Quarter
Aug 1
Full
Aug 9
Last Quarter

Hourly Weather History & Observations

Time (PDT) Temp. Dew Point Humidity Pressure Visibility Wind Dir Wind Speed Gust Speed Precip Events Conditions
12:58 AM 62.4 °F 58.3 °F 86% 29.83 in 10.0 mi Calm Calm - N/A   Clear
1:58 AM 61.0 °F 57.9 °F 90% 29.82 in 10.0 mi Calm Calm - N/A   Partly Cloudy
2:58 AM 61.2 °F 59.0 °F 93% 29.83 in 10.0 mi Calm Calm - N/A   Clear
3:58 AM 63.1 °F 58.3 °F 84% 29.82 in 10.0 mi West 5.8 mph - N/A   Clear
4:58 AM 61.2 °F 58.5 °F 91% 29.83 in 10.0 mi South 5.8 mph - N/A   Partly Cloudy
5:58 AM 61.2 °F 57.6 °F 88% 29.84 in 10.0 mi ESE 2.3 mph - N/A   Clear
6:58 AM 61.9 °F 56.5 °F 82% 29.85 in 10.0 mi West 5.8 mph - N/A   Partly Cloudy
7:58 AM 62.2 °F 56.8 °F 82% 29.85 in 10.0 mi Variable 4.6 mph - N/A   Overcast
8:58 AM 62.8 °F 56.8 °F 81% 29.86 in 10.0 mi SW 4.6 mph - N/A   Overcast
9:58 AM 64.4 °F 57.9 °F 79% 29.87 in 10.0 mi SE 3.5 mph - N/A   Partly Cloudy
10:58 AM 67.5 °F 58.3 °F 72% 29.88 in 10.0 mi South 5.8 mph - N/A   Mostly Cloudy
11:58 AM 68.2 °F 58.6 °F 71% 29.87 in 10.0 mi West 5.8 mph - N/A   Mostly Cloudy
12:58 PM 67.1 °F 58.5 °F 74% 29.88 in 10.0 mi NW 8.1 mph - N/A   Overcast
1:58 PM 68.2 °F 59.4 °F 73% 29.87 in 10.0 mi West 5.8 mph - N/A   Overcast
2:58 PM 69.4 °F 59.7 °F 71% 29.86 in 10.0 mi West 8.1 mph - N/A   Mostly Cloudy
3:58 PM 70.5 °F 60.1 °F 69% 29.86 in 10.0 mi WNW 5.8 mph - N/A   Scattered Clouds
4:58 PM 71.2 °F 59.9 °F 67% 29.86 in 10.0 mi West 6.9 mph - N/A   Clear
5:58 PM 70.5 °F 59.9 °F 69% 29.85 in 10.0 mi West 4.6 mph - N/A   Clear
6:58 PM 69.4 °F 59.9 °F 72% 29.88 in 10.0 mi West 8.1 mph - N/A   Clear
7:58 PM 68.9 °F 60.1 °F 73% 29.90 in 10.0 mi WSW 5.8 mph - N/A   Clear
8:58 PM 66.7 °F 59.4 °F 77% 29.91 in 10.0 mi WNW 5.8 mph - N/A   Overcast
9:58 PM 63.3 °F 57.6 °F 81% 29.95 in 10.0 mi West 5.8 mph - N/A   Overcast
10:58 PM 60.6 °F 56.1 °F 85% 29.95 in 10.0 mi West 4.6 mph - N/A   Clear
11:58 PM 59.4 °F 55.9 °F 88% 29.96 in 10.0 mi West 4.6 mph - N/A   Scattered Clouds